Regional Weather Roundup
Issued by NWS

Home | Current Version | Previous Version | Graphics & Text | Print | Product List | Glossary On
Versions: 1 2 3 4 5 6 7 8 9 10 11 12 13 14 15 16 17 18 19 20 21 22 23 24 25 26 27 28 29 30 31 32 33 34 35 36 37 38 39 40 41 42 43 44 45 46 47 48 49 50
000
ASUS43 KLMK 251310
RWRKY
KENTUCKY REGIONAL WEATHER ROUNDUP
NATIONAL WEATHER SERVICE LOUISVILLE KY
900 AM EDT SAT OCT 25 2014

NOTE "FAIR" INDICATES FEW OR NO CLOUDS BELOW 12,000 FEET
WITH NO SIGNIFICANT WEATHER AND/OR OBSTRUCTIONS TO VISIBILITY.

KYZ001>023-026-027-061>063-070>075-251400-
WESTERN AND SOUTH CENTRAL KENTUCKY

CITY           SKY/WX    TMP DP  RH WIND       PRES   REMARKS
PADUCAH        PTCLDY    56  53  90 CALM      30.04R FOG
HENDERSON      CLOUDY   N/A N/A N/A SW5       30.02R
OWENSBORO      PTCLDY    57  54  90 S5        30.03S
HOPKINSVILLE   MOCLDY    55  55 100 SW5       30.06S
BOWLING GREEN  MOCLDY    50  46  86 CALM      30.07S
GLASGOW        PTSUNNY   46  46 100 CALM      30.07S FOG
$$

KYZ024-025-028>034-038-045-046-053-251400-
NORTH CENTRAL KENTUCKY

CITY           SKY/WX    TMP DP  RH WIND       PRES   REMARKS
LOUISVILLE/SDF CLOUDY    55  50  83 SE12      30.01F
LOUISVILLE/LOU CLOUDY    54  51  90 S5        30.02S
FORT KNOX      CLOUDY    53  50  90 SW3       30.02S
$$

KYZ035>037-039>044-047>052-055>060-089>105-251400-
NORTHEAST KENTUCKY

CITY           SKY/WX    TMP DP  RH WIND       PRES   REMARKS
LEXINGTON      SUNNY     51  46  83 SW6       30.05S
COVINGTON      CLOUDY    53  47  79 SW9       29.99S
FRANKFORT      CLOUDY    50  46  86 S5        30.03R
$$

KYZ054-064>069-076>088-106>120-251400-
SOUTHEAST KENTUCKY

CITY           SKY/WX    TMP DP  RH WIND       PRES   REMARKS
JACKSON        SUNNY     44  41  89 VRB3      30.07R
LONDON         SUNNY     43  39  86 CALM      30.10R
SOMERSET       MOSUNNY   41  41 100 CALM      30.10S
MIDDLESBORO    FOG       38  38 100 CALM      30.13R VSB 1/4
MONTICELLO     MOSUNNY   45  43  93 CALM      30.11S FOG
$$




USA.gov is the U.S. government's official web portal to all federal, state and local government web resources and services.